Location: Munkebjergskolens Observatorium
(55.3864°N, 10.3987°E)
Time: 16:54:19
(UTC+02:00)

Oscar 19 - Visible Passes

Search period start: 01 April 2023 00:00
Search period end: 11 April 2023 00:00
Orbit: 772 x 790 km, 98.8° (Epoch: 31 March)

Date Brightness Start Highest point End Pass type
(mag) Time Alt. Az. Time Alt. Az. Time Alt. Az.
01 Apr 12.2 04:52:48 10° NNE 04:57:30 34° E 05:02:11 10° SSE visible
02 Apr 13.0 04:21:09 10° NE 04:24:58 20° E 04:28:47 10° SE visible
02 Apr 10.7 05:59:42 10° NNE 06:04:53 81° WNW 06:10:03 10° SSW visible
03 Apr 13.5 03:50:28 10° ENE 03:52:17 12° E 03:54:07 10° ESE visible
03 Apr 11.2 05:27:32 10° NNE 05:32:39 61° ESE 05:37:46 10° S visible
04 Apr 12.2 04:55:33 10° NNE 05:00:18 36° E 05:05:02 10° SSE visible
05 Apr 13.0 04:23:52 10° NE 04:27:47 21° E 04:31:42 10° SE visible
06 Apr 13.4 03:53:02 10° ENE 03:55:07 12° E 03:57:11 10° ESE visible
06 Apr 11.2 05:30:18 10° NNE 05:35:26 63° ESE 05:40:34 10° S visible
07 Apr 12.1 04:58:17 10° NNE 05:03:05 37° E 05:07:52 10° SSE visible
08 Apr 12.9 04:26:35 10° NE 04:30:35 22° E 04:34:34 10° SE visible
09 Apr 13.4 03:55:37 10° ENE 03:57:55 13° E 04:00:13 10° ESE visible
09 Apr 11.1 05:33:02 10° NNE 05:38:13 66° ESE 05:43:22 10° S visible
10 Apr 12.1 05:01:02 10° NNE 05:05:52 38° E 05:10:42 10° SSE visible
